Weather History for Tonopah, NV

Change the Weather History Date:

Sunday, February 9, 2014

  Actual Average Record
Temperature  
Mean Temperature 45 °F 36 °F  
Max Temperature 60 °F 48 °F 65 °F (1996)
Min Temperature 30 °F 23 °F 7 °F (1959)
Degree Days  
Heating Degree Days 20 29  
Month to date heating degree days 300 271  
Since 1 July heating degree days 3373 3522  
Cooling Degree Days 0 0  
Month to date cooling degree days 0 0  
Year to date cooling degree days 0 0  
Moisture  
Dew Point 32 °F    
Average Humidity 61    
Maximum Humidity 89    
Minimum Humidity 33    
Precipitation  
Precipitation T in 0.02 in 1.13 in (1968)
Month to date precipitation T 0.15  
Year to date precipitation 0.11 0.64  
Sea Level Pressure  
Sea Level Pressure 30.05 in    
Wind  
Wind Speed 7 mph (North)    
Max Wind Speed 23 mph    
Max Gust Speed 27 mph    
Visibility 10 miles    
Events Rain    
T = Trace of Precipitation, MM = Missing Value Source: NWS Daily Summary

Daily Weather History Graph

Daily Weather History Graph

Search for Another Location

Airport:

Trip Planner

Search our weather history database for the weather conditions in past years. The results will help you decide how hot, cold, wet, or windy it might be!

Date:

Astronomy

Feb. 09, 2014 Rise Set
Actual Time 6:45 AM PST 5:20 PM PST
Civil Twilight 6:17 AM PST 5:47 PM PST
Nautical Twilight 5:46 AM PST 6:18 PM PST
Astronomical Twilight 5:16 AM PST 6:49 PM PST
Moon 1:05 PM PST (2/9) 2:52 AM PST (2/9)
Length of Visible Light 11h 30m
Length of Day
10h 35m
Waxing Gibbous, 78% of the Moon is Illuminated
Feb 9
Waxing Gibbous
Feb 14
Full
Feb 22
Last Quarter
Mar 1
New
Mar 8
First Quarter

Hourly Weather History & Observations

Time (PST) Temp. Windchill Dew Point Humidity Pressure Visibility Wind Dir Wind Speed Gust Speed Precip Events Conditions
12:56 AM 34.0 °F 28.8 °F 28.0 °F 79% 30.14 in 10.0 mi NNE 5.8 mph - N/A   Overcast
1:56 AM 34.0 °F 27.2 °F 28.0 °F 79% 30.13 in 10.0 mi North 8.1 mph - N/A   Mostly Cloudy
2:56 AM 34.0 °F 26.6 °F 28.0 °F 79% 30.09 in 10.0 mi North 9.2 mph - N/A   Mostly Cloudy
3:56 AM 35.1 °F 26.9 °F 28.9 °F 78% 30.08 in 10.0 mi NNE 11.5 mph - N/A   Mostly Cloudy
4:56 AM 33.1 °F 23.9 °F 28.0 °F 82% 30.07 in 10.0 mi North 12.7 mph - N/A   Clear
5:56 AM 34.0 °F 27.2 °F 28.0 °F 79% 30.08 in 10.0 mi North 8.1 mph - N/A   Partly Cloudy
6:56 AM 30.0 °F 24.1 °F 27.0 °F 88% 30.10 in 10.0 mi NNW 5.8 mph - N/A   Clear
7:56 AM 36.0 °F 33.3 °F 30.0 °F 79% 30.10 in 10.0 mi NE 3.5 mph - N/A   Clear
8:56 AM 43.0 °F - 33.1 °F 68% 30.09 in 10.0 mi Calm Calm - N/A   Clear
9:56 AM 45.0 °F 41.8 °F 33.1 °F 63% 30.09 in 10.0 mi South 5.8 mph - N/A   Clear
10:56 AM 48.0 °F - 34.0 °F 58% 30.09 in 10.0 mi Variable 5.8 mph - N/A   Clear
11:56 AM 51.1 °F - 34.0 °F 52% 30.05 in 10.0 mi Calm Calm - N/A   Clear
12:56 PM 55.9 °F - 33.1 °F 42% 30.00 in 10.0 mi Calm Calm - N/A   Clear
1:56 PM 59.0 °F - 30.0 °F 33% 29.97 in 10.0 mi North - - N/A   Clear
2:56 PM 59.0 °F - 30.0 °F 33% 29.96 in 10.0 mi Calm Calm - N/A   Clear
3:56 PM 57.9 °F - 30.0 °F 35% 29.96 in 10.0 mi SE 3.5 mph - N/A   Scattered Clouds
4:56 PM 57.0 °F - 30.9 °F 37% 29.99 in 10.0 mi WNW 5.8 mph - N/A   Overcast
5:56 PM 50.0 °F - 39.9 °F 68% 30.04 in 10.0 mi North 8.1 mph - 0.00 in Rain Light Rain
6:56 PM 46.0 °F 41.4 °F 39.9 °F 79% 30.06 in 10.0 mi NE 9.2 mph - 0.00 in   Clear
7:56 PM 44.1 °F 38.1 °F 39.0 °F 82% 30.04 in 10.0 mi North 11.5 mph - N/A   Clear
8:56 PM 43.0 °F 37.2 °F 39.0 °F 86% 30.02 in 10.0 mi North 10.4 mph - N/A   Clear
9:56 PM 41.0 °F 35.8 °F 37.0 °F 86% 30.01 in 10.0 mi North 8.1 mph - N/A   Clear
10:56 PM 39.0 °F 32.8 °F 35.1 °F 86% 30.01 in 10.0 mi North 9.2 mph - N/A   Clear
11:56 PM 36.0 °F 29.6 °F 33.1 °F 89% 30.01 in 10.0 mi North 8.1 mph - N/A   Clear